TimeEDT,TemperatureF,Dew PointF,Humidity,Sea Level PressureIn,VisibilityMPH,Wind Direction,Wind SpeedMPH,Gust SpeedMPH,PrecipitationIn,Events,Conditions,WindDirDegrees,DateUTC
12:53 AM,73.9,70.0,87,29.99,10.0,Calm,Calm,-,N/A,,Scattered Clouds,0,2013-05-01 04:53:00
1:53 AM,73.9,70.0,87,29.97,10.0,East,4.6,-,N/A,,Scattered Clouds,80,2013-05-01 05:53:00
2:53 AM,73.0,70.0,90,29.95,10.0,Calm,Calm,-,N/A,,Scattered Clouds,0,2013-05-01 06:53:00
3:53 AM,73.0,70.0,90,29.93,10.0,ESE,5.8,-,N/A,,Clear,110,2013-05-01 07:53:00
4:43 AM,75.2,71.6,89,29.94,10.0,Calm,Calm,-,N/A,,Mostly Cloudy,0,2013-05-01 08:43:00
4:53 AM,73.9,71.1,91,29.94,10.0,Calm,Calm,-,N/A,,Mostly Cloudy,0,2013-05-01 08:53:00
5:53 AM,73.9,71.1,91,29.94,10.0,NNE,3.5,-,N/A,,Scattered Clouds,30,2013-05-01 09:53:00
6:53 AM,73.4,71.6,94,29.96,10.0,Calm,Calm,-,N/A,,Mostly Cloudy,0,2013-05-01 10:53:00
7:53 AM,78.1,72.0,81,29.98,10.0,East,4.6,-,N/A,,Mostly Cloudy,100,2013-05-01 11:53:00
8:53 AM,80.1,72.0,76,29.98,10.0,SE,6.9,-,N/A,,Mostly Cloudy,130,2013-05-01 12:53:00
9:53 AM,80.1,71.1,74,30.00,10.0,SE,8.1,-,N/A,,Overcast,130,2013-05-01 13:53:00
10:53 AM,82.0,72.0,71,30.01,10.0,ESE,10.4,-,N/A,,Overcast,120,2013-05-01 14:53:00
11:08 AM,82.4,71.6,70,30.01,10.0,SE,8.1,-,N/A,,Overcast,130,2013-05-01 15:08:00
11:44 AM,82.4,71.6,70,30.00,10.0,ESE,9.2,-,N/A,,Overcast,110,2013-05-01 15:44:00
11:53 AM,82.4,71.6,70,30.00,10.0,SE,10.4,-,N/A,,Overcast,130,2013-05-01 15:53:00
12:53 PM,84.0,71.1,65,29.99,10.0,SE,6.9,16.1,N/A,,Overcast,140,2013-05-01 16:53:00
1:53 PM,82.0,71.1,69,29.97,10.0,SSE,13.8,-,N/A,,Overcast,150,2013-05-01 17:53:00
2:53 PM,80.1,71.1,74,29.98,10.0,South,8.1,-,N/A,,Overcast,170,2013-05-01 18:53:00
3:53 PM,80.1,73.0,79,29.95,10.0,SE,3.5,-,0.00,Rain,Light Rain,140,2013-05-01 19:53:00
4:04 PM,78.8,73.4,83,29.95,9.0,Calm,Calm,-,0.00,Rain-Thunderstorm,Light Thunderstorms and Rain,0,2013-05-01 20:04:00
4:12 PM,77.0,73.4,89,29.97,5.0,WSW,15.0,23.0,0.06,Rain-Thunderstorm,Heavy Thunderstorms and Rain,240,2013-05-01 20:12:00
4:17 PM,71.6,68.0,88,29.98,0.5,SSW,18.4,32.2,0.25,Fog-Rain-Thunderstorm,Heavy Thunderstorms and Rain,200,2013-05-01 20:17:00
4:21 PM,71.6,66.2,83,29.98,0.5,East,18.4,32.2,0.54,Rain-Thunderstorm,Heavy Thunderstorms and Rain,100,2013-05-01 20:21:00
4:36 PM,71.6,66.2,83,29.95,7.0,East,3.5,-,1.02,Rain-Thunderstorm,Thunderstorms and Rain,90,2013-05-01 20:36:00
4:50 PM,71.6,68.0,88,29.95,10.0,NW,4.6,-,1.04,Rain,Light Rain,320,2013-05-01 20:50:00
4:53 PM,71.6,68.0,88,29.95,10.0,NNW,4.6,-,N/A,Rain,Light Rain,340,2013-05-01 20:53:00
5:53 PM,75.0,70.0,84,29.94,10.0,NNE,4.6,-,0.00,,Overcast,30,2013-05-01 21:53:00
6:53 PM,75.0,70.0,84,29.97,10.0,North,3.5,-,N/A,,Overcast,350,2013-05-01 22:53:00
7:53 PM,73.9,68.0,82,29.96,10.0,NNE,5.8,-,N/A,,Mostly Cloudy,30,2013-05-01 23:53:00
8:53 PM,73.9,69.1,85,29.98,10.0,ENE,4.6,-,N/A,,Overcast,60,2013-05-02 00:53:00
9:53 PM,75.0,69.1,82,29.97,10.0,NE,5.8,-,0.00,,Mostly Cloudy,50,2013-05-02 01:53:00
10:53 PM,75.9,70.0,82,29.98,10.0,NNE,3.5,-,N/A,,Overcast,20,2013-05-02 02:53:00
11:24 PM,73.4,69.8,88,29.98,5.0,East,16.1,-,0.01,Rain,Light Rain,100,2013-05-02 03:24:00
11:53 PM,73.0,69.1,87,29.97,10.0,NE,3.5,-,0.01,,Mostly Cloudy,50,2013-05-02 03:53:00